Location: Unspecified
(42.9300°N, 71.1866°W)
Time: 21:28:24
(UTC-04:00)

GENESIS II - Visible Passes

Search period start: 29 September 2016 00:00
Search period end: 09 October 2016 00:00
Orbit: 485 x 554 km, 64.5° (Epoch: 29 September)

Date Brightness Start Highest point End Pass type
(mag) Time Alt. Az. Time Alt. Az. Time Alt. Az.
04 Oct 5.8 06:08:03 10° S 06:11:51 40° ESE 06:15:45 10° NE visible
05 Oct 5.6 05:53:23 10° S 05:57:14 42° ESE 06:01:09 10° NE visible
06 Oct 5.5 05:38:43 10° S 05:42:36 44° ESE 05:46:33 10° NE visible
07 Oct 5.3 05:24:03 10° SSW 05:27:57 47° ESE 05:31:56 10° NE visible
08 Oct 5.1 05:10:11 15° S 05:13:19 49° ESE 05:17:19 10° NE visible
